Tracking 23758 objects as of 28-Oct-2021
HD Live streaming from Space Station
objects crossing your sky now

OBJECT H

Track OBJECT H now!
10-day predictions


NORAD ID: 43838
Int'l Code: 2018-102H
Perigee: 531.9 km
Apogee: 552.8 km
Inclination: 97.5 °
Period: 95.3 minutes
Semi major axis: 6913 km
RCS: Unknown
Launch date: December 7, 2018
Source: (TBD)
Launch site: Jiuquan Satellite Launch Center, China (JSC)
aabbcc
Your satellite tracking list
Your tracking list is empty




NASA's NSSDC Master Catalog

Two Line Element Set (TLE):
1 43838U 18102H   21301.09873362  .00002455  00000-0  15327-3 0  9990
2 43838  97.5281  16.6417 0015100 264.2685 158.4892 15.10335619159270
Source of the keplerian elements: AFSPC